sat.trackr.live / text

‹ back to catalog

TRANSPORTER-16 OBJECT BD

NORAD 68467 · 2026-067BD

PAYLOAD ACTIVE UNKNOWN

§ Identity

Operator
Country
TBD
Launch date
2026-03-30
Launch site
AFWTR
Launch vehicle
Mass (kg)
RCS (m²)

External: N2YO · Heavens-Above · Gunter

§ Orbital elements

Epoch: 2026-05-25T03:46:25.582656Z

Period
94.85 min
Inclination
97.4397°
Eccentricity
0.0007898
Mean motion
15.18187626 rev/d
Perigee alt
505.9 km
Apogee alt
516.8 km
Semi-major
6,889.5 km
B*
7.6517e-4
RAAN
103.8251°
Arg perigee
139.1825°
Mean anomaly
221.0002°
Rev number
844

§ Raw data

TRANSPORTER-16 OBJECT BD1 68467U 26067BD  26145.15724054  .00015607  00000+0  76517-3 0  99952 68467  97.4397 103.8251 0007898 139.1825 221.0002 15.18187626  8441

JSON: /api/v1/satellites/68467 · /tle

For live sub-satellite position, see the globe view (requires WebGL).

§ Visibility from observer

Set your observer location to see the next 7 days of passes ≥ 10°. The values pass through the URL so the page stays shareable.

No JS? Fill the form by hand. The geolocation button needs JavaScript.